GW0890 Weather Reports


time (UTC)temp
C
wind
direction
speed
KPH
gust
KPH
rain 1hr
cm
rain 24hr
cm
rain mn
cm
humidity
%
barometer
mb
20260508181540 20 83 9.7 25.7 0.00 0.00 0.00 38 1012.8
20260508180047 20 117 9.7 22.5 0.00 0.00 0.00 40 1012.9
20260508174542 20 32 8.0 14.5 0.00 0.00 0.00 41 1013.1
20260508173032 20 116 12.9 22.5 0.00 0.00 0.00 38 1013.3
20260508171529 20 76 9.7 17.7 0.00 0.00 0.00 41 1013.5
20260508170107 20 306 8.0 25.7 0.00 0.00 0.00 42 1013.8
20260508164559 20 355 11.3 22.5 0.00 0.00 0.00 42 1014.1
20260508163052 19 39 9.7 17.7 0.00 0.00 0.00 42 1014.3
20260508161549 18 76 4.8 17.7 0.00 0.00 0.00 47 1014.8
20260508160046 18 11 11.3 22.5 0.00 0.00 0.00 44 1015.0
20260508154544 17 63 6.4 22.5 0.00 0.00 0.00 46 1015.1
20260508153026 17 51 9.7 17.7 0.00 0.00 0.00 46 1015.1
20260508151511 17 317 9.7 14.5 0.00 0.00 0.00 49 1015.0
20260508150055 16 61 11.3 17.7 0.00 0.00 0.00 53 1015.2
20260508144554 15 98 9.7 14.5 0.00 0.00 0.00 53 1015.2
20260508143057 15 38 11.3 19.3 0.00 0.00 0.00 55 1015.3
20260508141600 13 24 4.8 17.7 0.00 0.00 0.00 58 1015.2
20260508140045 13 58 6.4 11.3 0.00 0.00 0.00 63 1015.3
20260508134542 12 51 4.8 11.3 0.00 0.00 0.00 67 1015.4
20260508133037 11 328 1.6 6.4 0.00 0.00 0.00 72 1015.6
20260508131533 10 310 0.0 8.0 0.00 0.00 0.00 76 1015.6
20260508130039 9 292 1.6 8.0 0.00 0.00 0.00 85 1015.7
20260508124536 6 169 0.0 0.0 0.00 0.00 0.00 95 1015.9
20260508123028 5 168 0.0 0.0 0.00 0.00 0.00 96 1015.7
20260508121626 4 167 0.0 0.0 0.00 0.00 0.00 96 1015.7
20260508120029 3 167 0.0 0.0 0.00 0.00 0.00 96 1015.6
20260508114530 2 167 0.0 0.0 0.00 0.00 0.00 96 1015.6
20260508113028 2 167 0.0 0.0 0.00 0.00 0.00 95 1015.6
20260508111526 1 166 0.0 0.0 0.00 0.00 0.00 95 1015.5
20260508110023 1 166 0.0 0.0 0.00 0.00 0.00 95 1015.3
20260508104524 1 166 0.0 0.0 0.00 0.00 0.00 95 1015.2
20260508103025 1 166 0.0 0.0 0.00 0.00 0.00 95 1015.1
20260508101520 1 165 0.0 0.0 0.00 0.00 0.00 95 1014.9
20260508100117 1 165 0.0 0.0 0.00 0.00 0.00 95 1014.7
20260508094546 1 165 0.0 0.0 0.00 0.00 0.00 95 1014.7
20260508093045 1 165 0.0 0.0 0.00 0.00 0.00 94 1014.7
20260508091543 1 165 0.0 0.0 0.00 0.00 0.00 94 1014.7
20260508090040 1 165 0.0 0.0 0.00 0.00 0.00 94 1014.6
20260508084641 1 165 0.0 0.0 0.00 0.00 0.00 94 1014.6
20260508083042 1 165 0.0 0.0 0.00 0.00 0.00 94 1014.5
20260508081510 2 164 0.0 0.0 0.00 0.00 0.00 94 1014.6
20260508080005 2 164 0.0 0.0 0.00 0.00 0.00 94 1014.4
20260508074502 2 164 0.0 0.0 0.00 0.00 0.00 94 1014.5
20260508073004 2 164 0.0 0.0 0.00 0.00 0.00 94 1014.3
20260508071604 2 164 0.0 0.0 0.00 0.00 0.00 93 1014.3
20260508070059 2 164 0.0 0.0 0.00 0.00 0.00 93 1014.3
20260508064555 2 163 0.0 6.4 0.00 0.00 0.00 93 1014.4
20260508063103 2 162 0.0 0.0 0.00 0.00 0.00 92 1014.5
20260508061551 3 162 0.0 3.2 0.00 0.00 0.00 92 1014.5
20260508060050 3 162 0.0 0.0 0.00 0.00 0.00 92 1014.6
20260508054520 3 162 0.0 3.2 0.00 0.00 0.00 92 1014.4
20260508053016 3 160 0.0 3.2 0.00 0.00 0.00 91 1014.4
20260508051513 3 159 0.0 0.0 0.00 0.00 0.00 91 1014.4
20260508050010 3 159 1.6 4.8 0.00 0.00 0.00 90 1014.4
20260508044508 4 159 0.0 0.0 0.00 0.00 0.00 90 1014.5
20260508043006 4 159 0.0 0.0 0.00 0.00 0.00 89 1014.5
20260508041602 5 158 0.0 0.0 0.00 0.00 0.00 88 1014.4
20260508040059 5 158 0.0 0.0 0.00 0.00 0.00 87 1014.4
20260508034611 5 158 0.0 0.0 0.00 0.00 0.00 87 1014.3
20260508033054 6 157 0.0 0.0 0.00 0.00 0.00 84 1014.4
20260508031550 6 157 0.0 3.2 0.00 0.00 0.00 84 1014.4
20260508030047 6 157 0.0 6.4 0.00 0.00 0.00 83 1014.3
20260508024544 7 157 0.0 6.4 0.00 0.00 0.00 79 1014.2
20260508023039 7 155 0.0 0.0 0.00 0.00 0.00 76 1014.0
20260508021505 8 155 0.0 0.0 0.00 0.00 0.00 74 1013.8
20260508020004 9 155 0.0 3.2 0.00 0.00 0.00 71 1013.7
20260508014533 10 155 1.6 3.2 0.00 0.00 0.00 69 1013.3
20260508013039 10 155 0.0 3.2 0.00 0.00 0.00 65 1013.2
20260508011502 11 155 0.0 0.0 0.00 0.00 0.00 61 1012.9
20260508010002 13 155 0.0 3.2 0.00 0.00 0.00 53 1012.6
20260508004600 13 155 0.0 4.8 0.00 0.00 0.00 48 1012.7
20260508003059 14 156 3.2 8.0 0.00 0.00 0.00 46 1012.5
20260508001621 15 157 0.0 3.2 0.00 0.00 0.00 44 1012.3
20260508000100 16 144 0.0 9.7 0.00 0.00 0.00 39 1012.0
20260507234556 17 182 1.6 8.0 0.00 0.00 0.00 36 1011.8
20260507233056 17 146 1.6 11.3 0.00 0.00 0.00 36 1011.6
20260507231556 17 155 4.8 14.5 0.00 0.00 0.00 35 1011.5
20260507230053 17 140 6.4 17.7 0.00 0.00 0.00 34 1011.6
20260507224557 17 178 9.7 16.1 0.00 0.00 0.00 35 1011.5
20260507223051 17 108 8.0 20.9 0.00 0.00 0.00 36 1011.4
20260507221549 17 154 9.7 29.0 0.00 0.00 0.00 38 1011.3
20260507220049 18 54 9.7 30.6 0.00 0.00 0.00 38 1011.2
20260507214523 17 121 6.4 17.7 0.00 0.00 0.00 39 1011.1
20260507213018 18 102 6.4 20.9 0.00 0.00 0.00 43 1011.0
20260507211515 17 77 6.4 17.7 0.00 0.00 0.00 43 1010.8
20260507210014 17 55 8.0 24.1 0.00 0.00 0.00 41 1010.7
20260507204512 18 101 9.7 20.9 0.00 0.00 0.00 42 1010.7
20260507203011 18 55 14.5 22.5 0.00 0.00 0.00 41 1010.5
20260507201510 18 360 16.1 37.0 0.00 0.00 0.00 43 1010.6
20260507200007 18 24 9.7 22.5 0.00 0.00 0.00 43 1010.8
20260507194505 18 154 8.0 19.3 0.00 0.00 0.00 43 1010.9
20260507193003 17 13 9.7 17.7 0.00 0.00 0.00 44 1011.0
20260507191503 17 121 3.2 17.7 0.00 0.00 0.00 46 1011.3
20260507190059 17 93 6.4 16.1 0.00 0.00 0.00 45 1011.4
20260507184605 17 71 11.3 24.1 0.00 0.00 0.00 46 1011.5
20260507183056 17 58 12.9 20.9 0.00 0.00 0.00 49 1011.5